• In Belarus
  • List of Countries
  • For 7 days
  • Water Temperature
  • Satellite Maps
  • Weather Map
  • Weather Widgets
  • user-avatar
    Login

    Hourly Weather Neuquén

    Today, 21 August, Tuesday

    Time Temperature Precipitation Wind Pressure Humidity
    00:00 +7°C° 0 mm 3 mps 737 mmHg 30%
    01:00 +7°C° 0 mm 3 mps 736 mmHg 31%
    02:00 +6°C° 0 mm 2 mps 736 mmHg 33%
    03:00 +6°C° 0 mm 2 mps 736 mmHg 34%
    04:00 +6°C° 0 mm 1 mps 736 mmHg 36%
    05:00 +6°C° 0 mm 1 mps 736 mmHg 35%
    06:00 +7°C° 0 mm 1 mps 736 mmHg 35%
    07:00 +7°C° 0 mm 1 mps 736 mmHg 35%
    08:00 +9°C° 0 mm 1 mps 736 mmHg 30%
    09:00 +12°C° 0 mm 1 mps 736 mmHg 26%
    10:00 +14°C° 0 mm 1 mps 736 mmHg 21%
    11:00 +15°C° 0 mm 2 mps 735 mmHg 20%
    12:00 +17°C° 0 mm 2 mps 735 mmHg 18%
    13:00 +18°C° 0 mm 3 mps 734 mmHg 17%
    14:00 +19°C° 0 mm 3 mps 734 mmHg 17%
    15:00 +19°C° 0 mm 3 mps 734 mmHg 17%
    16:00 +19°C° 0 mm 3 mps 733 mmHg 18%
    17:00 +18°C° 0 mm 3 mps 733 mmHg 19%
    18:00 +16°C° 0 mm 3 mps 733 mmHg 21%
    19:00 +14°C° 0 mm 3 mps 733 mmHg 22%
    20:00 +14°C° 0 mm 3 mps 733 mmHg 23%
    21:00 +13°C° 0 mm 3 mps 733 mmHg 24%
    22:00 +13°C° 0 mm 3 mps 733 mmHg 24%
    23:00 +12°C° 0 mm 3 mps 732 mmHg 25%

    Tomorrow, 22 August, Wednesday

    Time Temperature Precipitation Wind Pressure Humidity
    00:00 +11°C° 0 mm 3 mps 732 mmHg 26%
    01:00 +11°C° 0 mm 3 mps 732 mmHg 27%
    02:00 +10°C° 0 mm 3 mps 731 mmHg 28%
    03:00 +10°C° 0 mm 3 mps 731 mmHg 28%
    04:00 +10°C° 0 mm 2 mps 730 mmHg 29%
    05:00 +10°C° 0 mm 2 mps 729 mmHg 28%
    06:00 +10°C° 0 mm 2 mps 729 mmHg 28%
    07:00 +10°C° 0 mm 2 mps 729 mmHg 28%
    08:00 +12°C° 0 mm 3 mps 728 mmHg 24%
    09:00 +16°C° 0 mm 3 mps 728 mmHg 20%
    10:00 +18°C° 0 mm 4 mps 727 mmHg 16%
    11:00 +20°C° 0 mm 5 mps 726 mmHg 14%
    12:00 +21°C° 0 mm 6 mps 725 mmHg 12%
    13:00 +23°C° 0 mm 6 mps 724 mmHg 10%
    14:00 +23°C° 0 mm 8 mps 724 mmHg 11%
    15:00 +23°C° 0 mm 10 mps 724 mmHg 11%
    16:00 +22°C° 0 mm 11 mps 724 mmHg 11%
    17:00 +19°C° 0 mm 11 mps 725 mmHg 18%
    18:00 +17°C° 0 mm 11 mps 725 mmHg 24%
    19:00 +13°C° 0 mm 10 mps 726 mmHg 31%
    20:00 +13°C° 0 mm 11 mps 727 mmHg 31%
    21:00 +12°C° 0 mm 12 mps 728 mmHg 31%
    22:00 +10°C° 0 mm 13 mps 729 mmHg 32%
    23:00 +10°C° 0 mm 13 mps 729 mmHg 34%

    Day after tomorrow, 23 August, Thursday

    Time Temperature Precipitation Wind Pressure Humidity
    00:00 +9°C° 0 mm 13 mps 729 mmHg 36%
    01:00 +9°C° 0 mm 13 mps 729 mmHg 38%
    02:00 +8°C° 0 mm 12 mps 729 mmHg 40%
    03:00 +8°C° 0 mm 11 mps 729 mmHg 41%
    04:00 +7°C° 0 mm 10 mps 729 mmHg 43%
    05:00 +7°C° 0 mm 8 mps 730 mmHg 44%
    06:00 +8°C° 0 mm 7 mps 731 mmHg 45%
    07:00 +7°C° 0 mm 6 mps 731 mmHg 47%
    08:00 +9°C° 0 mm 7 mps 731 mmHg 40%
    09:00 +10°C° 0 mm 8 mps 732 mmHg 33%
    10:00 +12°C° 0 mm 9 mps 732 mmHg 27%
    11:00 +12°C° 0 mm 8 mps 732 mmHg 26%
    12:00 +14°C° 0 mm 7 mps 731 mmHg 26%
    13:00 +14°C° 0 mm 6 mps 731 mmHg 26%
    14:00 +13°C° 0 mm 6 mps 732 mmHg 29%
    15:00 +13°C° 0 mm 5 mps 732 mmHg 32%
    16:00 +12°C° 0 mm 5 mps 733 mmHg 35%
    17:00 +12°C° 0 mm 5 mps 734 mmHg 38%
    18:00 +10°C° 0 mm 6 mps 735 mmHg 41%
    19:00 +9°C° 0 mm 6 mps 736 mmHg 44%
    20:00 +9°C° 0 mm 7 mps 737 mmHg 45%
    21:00 +9°C° 0 mm 7 mps 738 mmHg 47%
    22:00 +7°C° 0 mm 8 mps 739 mmHg 48%
    23:00 +8°C° 0 mm 7 mps 740 mmHg 48%

    24 August, Friday

    Time Temperature Precipitation Wind Pressure Humidity
    00:00 +6°C° 0 mm 7 mps 741 mmHg 49%
    01:00 +6°C° 0 mm 7 mps 741 mmHg 50%
    02:00 +5°C° 0 mm 6 mps 742 mmHg 50%
    03:00 +5°C° 0 mm 6 mps 743 mmHg 51%
    04:00 +5°C° 0 mm 5 mps 743 mmHg 52%
    05:00 +5°C° 0 mm 5 mps 744 mmHg 52%
    06:00 +5°C° 0 mm 4 mps 744 mmHg 52%
    07:00 +5°C° 0 mm 4 mps 745 mmHg 53%
    08:00 +7°C° 0 mm 3 mps 745 mmHg 46%
    09:00 +9°C° 0 mm 2 mps 745 mmHg 40%
    10:00 +10°C° 0 mm 2 mps 745 mmHg 34%
    11:00 +12°C° 0 mm 2 mps 744 mmHg 32%
    12:00 +12°C° 0 mm 3 mps 744 mmHg 29%
    13:00 +12°C° 0 mm 4 mps 743 mmHg 27%
    14:00 +13°C° 0 mm 4 mps 742 mmHg 25%
    15:00 +13°C° 0 mm 4 mps 742 mmHg 24%
    16:00 +13°C° 0 mm 4 mps 741 mmHg 23%
    17:00 +12°C° 0 mm 4 mps 741 mmHg 24%
    18:00 +12°C° 0 mm 4 mps 741 mmHg 26%
    19:00 +11°C° 0 mm 4 mps 740 mmHg 28%
    20:00 +11°C° 0 mm 4 mps 740 mmHg 29%
    21:00 +11°C° 0 mm 4 mps 739 mmHg 29%
    22:00 +10°C° 0 mm 4 mps 739 mmHg 30%
    23:00 +10°C° 0 mm 4 mps 739 mmHg 30%

    25 August, Saturday

    Time Temperature Precipitation Wind Pressure Humidity
    00:00 +10°C° 0 mm 4 mps 738 mmHg 31%
    01:00 +10°C° 0 mm 4 mps 738 mmHg 31%
    02:00 +9°C° 0 mm 5 mps 737 mmHg 32%
    03:00 +9°C° 0 mm 6 mps 737 mmHg 34%
    04:00 +9°C° 0 mm 7 mps 737 mmHg 35%
    05:00 +9°C° 0 mm 7 mps 737 mmHg 37%
    06:00 +10°C° 0 mm 8 mps 737 mmHg 38%
    07:00 +10°C° 0 mm 8 mps 737 mmHg 39%
    08:00 +12°C° 0 mm 9 mps 737 mmHg 39%
    09:00 +14°C° 0 mm 10 mps 737 mmHg 38%
    10:00 +18°C° 0 mm 11 mps 737 mmHg 37%
    11:00 +19°C° 0 mm 10 mps 736 mmHg 35%
    12:00 +21°C° 0 mm 10 mps 735 mmHg 34%
    13:00 +22°C° 0 mm 9 mps 735 mmHg 32%
    14:00 +22°C° 0 mm 8 mps 734 mmHg 32%
    15:00 +22°C° 0 mm 8 mps 734 mmHg 31%
    16:00 +22°C° 0 mm 7 mps 734 mmHg 31%
    17:00 +21°C° 0 mm 7 mps 734 mmHg 33%
    18:00 +20°C° 0 mm 6 mps 733 mmHg 36%
    19:00 +17°C° 0 mm 6 mps 733 mmHg 39%
    20:00 +17°C° 0 mm 6 mps 733 mmHg 40%
    21:00 +16°C° 0 mm 7 mps 733 mmHg 41%
    22:00 +15°C° 0 mm 7 mps 732 mmHg 43%
    23:00 +13°C° 0 mm 8 mps 732 mmHg 45%

    26 August, Sunday

    Time Temperature Precipitation Wind Pressure Humidity
    00:00 +13°C° 0 mm 8 mps 732 mmHg 47%
    01:00 +12°C° 0 mm 9 mps 732 mmHg 50%
    02:00 +12°C° 0 mm 9 mps 732 mmHg 51%
    03:00 +12°C° 0 mm 9 mps 732 mmHg 51%
    04:00 +12°C° 0 mm 8 mps 733 mmHg 52%
    05:00 +11°C° 0 mm 8 mps 733 mmHg 54%
    06:00 +11°C° 0 mm 8 mps 734 mmHg 55%
    07:00 +11°C° 0 mm 7 mps 734 mmHg 57%
    08:00 +12°C° 0 mm 7 mps 735 mmHg 50%
    09:00 +15°C° 0 mm 7 mps 735 mmHg 42%
    10:00 +17°C° 0 mm 7 mps 736 mmHg 35%
    11:00 +17°C° 0 mm 6 mps 736 mmHg 33%
    12:00 +19°C° 0 mm 5 mps 735 mmHg 30%
    13:00 +19°C° 0 mm 4 mps 735 mmHg 28%
    14:00 +19°C° 0 mm 3 mps 735 mmHg 28%
    15:00 +19°C° 0 mm 2 mps 734 mmHg 27%
    16:00 +19°C° 0 mm 2 mps 734 mmHg 27%
    17:00 +18°C° 0 mm 2 mps 734 mmHg 30%
    18:00 +17°C° 0 mm 3 mps 735 mmHg 32%
    19:00 +16°C° 0 mm 3 mps 735 mmHg 35%
    20:00 +14°C° 0 mm 3 mps 735 mmHg 37%
    21:00 +14°C° 0 mm 3 mps 735 mmHg 40%
    22:00 +13°C° 0 mm 3 mps 735 mmHg 43%
    23:00 +12°C° 0 mm 3 mps 734 mmHg 45%
    Show more